AirNav   Everest Fuels
 
 1686 users online  

09W South Capitol Street Heliport
Washington, District of Columbia, USA

GOING TO WASHINGTON?


FAA INFORMATION EFFECTIVE 10 SEPTEMBER 2020

Location

FAA Identifier: 09W
Lat/Long: 38-52-07.4040N 077-00-26.9130W
38-52.123400N 077-00.448550W
38.8687233,-77.0074758
(estimated)
Elevation: 10 ft. / 3.0 m (surveyed)
Variation: 09W (1985)
Time zone: UTC -4 (UTC -5 during Standard Time)
Zip code: 20398

Heliport Operations

Heliport use: Open to the public
Activation date: 04/1974
Control tower: no
ARTCC: WASHINGTON CENTER
FSS: LEESBURG FLIGHT SERVICE STATION
NOTAMs facility: DCA (NOTAM-D service available)
Attendance: MON-FRI 0700-1900, ALL SAT-SUN 1100-1900
OPEN HOLIDAYS UPON RESERVATION.
Wind indicator: lighted
Segmented circle: no
Lights: SS-SR
Beacon: white-green-yellow (heliport)
Operates sunset to sunrise.

Heliport Communications

CTAF/UNICOM: 123.05
WX ASOS at DCA (1.8 nm SW): 132.65 (703-412-8140)
WX AWOS-3 at CGS (8 nm NE): 121.225 (301-864-5497)
WX AWOS-3 at FME (17 nm NE): 123.925
WX AWOS-3PT at GAI (19 nm N): 128.275 (301-977-2971)

Nearby radio navigation aids

VOR radial/distance  VOR name  Freq  Var
DCAr077/1.5WASHINGTON VOR/DME111.0009W
ADWr309/7.6ANDREWS VORTAC113.1010W
OTTr318/15.7NOTTINGHAM VORTAC113.7010W
AMLr108/21.8ARMEL VOR/DME113.5008W
BALr233/24.3BALTIMORE VORTAC115.1011W
BRVr036/35.8BROOKE VORTAC114.5009W
FDKr160/(36.8)FREDERICK VOR109.0008W
EMIr190/37.6WESTMINSTER VORTAC117.9008W

 
NDB name  Hdg/Dist  Freq  Var  ID
OXONN020/6.233211WDCA -.. -.-. .-
GEORGETOWN133/6.632309WGTN --. - -.
DAVEE030/13.322309WDAA -.. .- .-
ELLICOTT214/27.337111WFND ..-. -. -..

Heliport Services

Fuel available: A
Airframe service: NONE
Powerplant service: NONE

Runway Information

Helipad H1

Dimensions: 60 x 60 ft. / 18 x 18 m
Surface: asphalt, in good condition
Runway edge lights: PERI
Latitude: 38-52.123400N
Longitude: 077-00.448550W
Elevation: 10.0 ft.
Traffic pattern: leftleft
Markings: , in fair condition
Approach lights: RLLS

Heliport Ownership and Management from official FAA records

Ownership: Privately-owned
Owner: SOUTH CAPITOL STREET HELIPORT, LLC
115 VALLEYVIEW RD
FAIRFIELD, CT 06824
Phone 203-856-6407
Manager: DON SCIMONELLI
1724 S CAPITAL ST SE
WASHINGTON, DC 20003
Phone 202-484-8616

Heliport Operational Statistics

Aircraft based on the field: 1
Helicopters: 1
    
Aircraft operations: avg 33/month *
50% transient general aviation
50% local general aviation
* for 12-month period ending 05 December 1997

Additional Remarks

A52-H1 75 FT LGTD BRIDGE 500 FT E; + 50 FT STACK 400 FT W; +40 FT BLDG 60 FT NE.
INGRESS & EGRESS ROUTES NE & SW OVER ANACOSTIA RIVER.
LARGE LOOSE GRAVEL SOUTH & WEST OF PAVEMENT.
FOR CD CTC POTOMAC APCH AT 866-599-3874.

Instrument Procedures

There are no published instrument procedures at 09W.

Some nearby airports with instrument procedures:

KDCA - Ronald Reagan Washington National Airport (2 nm SW)
KADW - Joint Base Andrews (7 nm SE)
KVKX - Potomac Airfield (8 nm S)
KCGS - College Park Airport (8 nm NE)
W32 - Washington Executive Airport/Hyde Field (8 nm SE)
W00 - Freeway Airport (12 nm E)
KDAA - Davison Army Airfield (12 nm SW)
2W5 - Maryland Airport (17 nm S)
KFME - Tipton Airport (17 nm NE)
KGAI - Montgomery County Airpark (19 nm N)
 
Loc | Ops | Rwys | IFR | FBO | Links
Com | Nav | Svcs | Stats | Notes
Area around 09W (South Capitol Street Heliport)
 
Road maps at: MapQuest Bing Google
 
Aerial photo
WARNING: Photo may not be current or correct
Aerial photo of 09W (South Capitol Street Heliport)
Photo courtesy of Steven Bussman
Bussman Aviation
Photo taken 29-Apr-2012
looking northeast.

Do you have a better or more recent aerial photo of South Capitol Street Heliport that you would like to share? If so, please send us your photo.

 
Sectional chart

 
Airport distance calculator
Flying to South Capitol Street Heliport? Find the distance to fly.

From to 09W

Sunrise and sunset
Times for 29-Sep-2020
 Local
(UTC-4)
 Zulu
(UTC)
Morning civil twilight06:3710:37
Sunrise07:0411:04
Sunset18:5222:52
Evening civil twilight19:1923:19

Current date and time
Zulu (UTC)  29-Sep-2020 19:50:54
Local (UTC-4)  29-Sep-2020 15:50:54
 
METAR
KDCA 
2nm SW 
291852Z 17009KT 10SM SCT031 SCT060 BKN250 26/20 A2975 RMK AO2 SLP073 T02610200
KADW 
7nm SE 
291856Z AUTO 15007KT 10SM FEW029 FEW140 FEW190 26/20 A2974 RMK AO2 SLP076 T02590195 FZRANO $
KCGS 
8nm NE 
291935Z AUTO 00000KT 10SM SCT038 SCT048 BKN055 26/18 A2973 RMK AO1 T02610178
KDAA 
12nm SW 
291856Z AUTO 20004KT 10SM FEW028 27/21 A2974 RMK AO2 SLP073 T02690205 $
KFME 
17nm NE 
291935Z AUTO 13008KT 10SM BKN030 BKN037 OVC055 25/20 A2976 RMK AO1
KGAI 
19nm N 
291856Z AUTO 29009KT 10SM FEW024 BKN031 23/18 A2978 RMK AO2 SLP094 T02330183
TAF
KDCA 
2nm SW 
291741Z 2918/3024 17011KT P6SM FEW025 BKN040 FM291900 33008KT P6SM FEW025 BKN040 FM292100 35007KT P6SM VCSH BKN020 FM300000 34006KT 5SM -SHRA BR OVC010 FM300800 31007KT 6SM -SHRA BR OVC009 FM301100 29007KT P6SM BKN045 FM301500 27014KT P6SM FEW250
KADW 
7nm SE 
291701Z 2917/3023 18006KT 9999 SCT020 SCT250 QNH2976INS BECMG 2918/2919 16007KT 9999 -DZ OVC030 QNH2974INS TEMPO 2919/2921 16010G20KT VCTS BKN015CB BECMG 2920/2921 16007KT 9999 -RA SCT009 OVC015 510053 QNH2970INS BECMG 2922/2923 16010KT 8000 RA OVC008 510053 QNH2967INS TEMPO 2923/3003 16010G25KT 4800 +RA OVC005 BECMG 3003/3004 30010G25KT 8000 RA OVC008 QNH2968INS TEMPO 3005/3006 30015G35KT 510003 BECMG 3007/3008 31010G25KT 9000 -SHRA BKN008 OVC050 QNH2969INS BECMG 3009/3011 26010G18KT 9999 NSW S
KDAA 
12nm SW 
291200Z 2912/3018 17007KT 9999 FEW010 SCT070 BKN200 QNH2980INS BECMG 2916/2917 18012KT 9999 VCSH FEW015 BKN040 BKN120 QNH2972INS BECMG 2918/2919 17010G20KT 8000 -SHRA VCTS FEW015CB BKN040 BKN250 QNH2968INS TEMPO 2922/3001 3200 +SHRA BKN006 OVC015 BECMG 3000/3001 31015G25KT 3200 +SHRA BKN008 OVC015 510002 QNH2970INS BECMG 3003/3004 30015G25KT 9999 VCSH BKN030 OVC080 510002 QNH2972INS BECMG 3008/3009 30010G20KT 9999 NSW BKN060 BKN200 QNH2974INS TX25/2919Z TN13/3010Z
NOTAMs
Click for the latest NOTAMs
NOTAMs are issued by the DoD/FAA and will open in a separate window not controlled by AirNav.

 

 
 

FBO, Fuel Providers, and Aircraft Ground Support

  
 Business Name 
 
 Contact 
 
 Services / Description 
 
Fuel Prices
 
Comments
  
South Capitol Street Heliport FBO 202-484-8616
202-527-8687
[email]
Airport management, Aviation fuel, Aircraft parking (ramp or tiedown), Hangars, Hangar leasing / sales, Passenger terminal and lounge, ...

More info about South Capitol Street Heliport FBO
independent
Jet A
AS $6.96 
 Updated 16-Jul-2020
 
   write
AS=Assisted/Self Service
Update Fuel Prices
 

Would you like to see your business listed on this page?

 If your business provides an interesting product or service to pilots, flight crews, aircraft, or users of the South Capitol Street Heliport, you should consider listing it here.  To start the listing process, click on the button below
 
Add a business
 

Other Pages about South Capitol Street Heliport

Update a link
 
Copyright © AirNav, LLC. All rights reserved. Privacy Policy  Contact